CW1032 Weather Reports


Display with metric or nautical units.
time (UTC)temp
F
wind
direction
speed
MPH
gust
MPH
rain 1hr
in
rain 24hr
in
rain mn
in
humidity
%
barometer
mb
20190223163204 39 331 1.0 2.0 0.00 0.00 0.00 66 1032.2
20190223161703 38 341 0.0 1.0 0.00 0.00 0.00 67 1032.3
20190223161203 38 349 1.0 1.0 0.00 0.00 0.00 67 1032.3
20190223160703 38 347 2.0 3.0 0.00 0.00 0.00 66 1032.2
20190223160203 38 335 1.0 2.0 0.00 0.00 0.00 67 1032.3
20190223154704 38 341 0.0 1.0 0.00 0.00 0.00 67 1032.3
20190223154203 38 332 1.0 1.0 0.00 0.00 0.00 66 1032.5
20190223153704 38 348 0.0 1.0 0.00 0.00 0.00 67 1032.8
20190223153204 38 337 0.0 2.0 0.00 0.00 0.00 66 1032.9
20190223151704 37 349 0.0 0.0 0.00 0.00 0.00 67 1033.1
20190223151204 37 350 0.0 1.0 0.00 0.00 0.00 66 1033.1
20190223150703 37 344 0.0 1.0 0.00 0.00 0.00 67 1033.4
20190223150204 37 339 0.0 2.0 0.00 0.00 0.00 67 1033.0
20190223144703 37 339 1.0 1.0 0.00 0.00 0.00 67 1032.7
20190223144203 37 351 1.0 5.0 0.00 0.00 0.00 67 1032.8
20190223143703 37 345 0.0 1.0 0.00 0.00 0.00 67 1032.8
20190223143203 36 352 0.0 2.0 0.00 0.00 0.00 67 1033.0
20190223141703 36 351 1.0 2.0 0.00 0.00 0.00 68 1033.2
20190223141203 36 352 0.0 2.0 0.00 0.00 0.00 68 1033.4
20190223140704 36 340 0.0 0.0 0.00 0.00 0.00 69 1033.3
20190223140204 36 336 0.0 1.0 0.00 0.00 0.00 69 1033.3
20190223134703 35 348 0.0 1.0 0.00 0.00 0.00 69 1032.9
20190223134204 35 351 0.0 1.0 0.00 0.00 0.00 70 1032.9
20190223133704 35 348 1.0 1.0 0.00 0.00 0.00 70 1033.0
20190223133203 35 348 0.0 5.0 0.00 0.00 0.00 70 1033.0
20190223131703 35 350 0.0 2.0 0.00 0.00 0.00 70 1033.2
20190223131204 35 350 2.0 3.0 0.00 0.00 0.00 70 1033.2
20190223130704 34 348 0.0 1.0 0.00 0.00 0.00 70 1033.3
20190223130203 34 347 1.0 1.0 0.00 0.00 0.00 70 1033.4
20190223124704 34 343 0.0 0.0 0.00 0.00 0.00 71 1033.5
20190223124204 34 343 0.0 0.0 0.00 0.00 0.00 71 1033.6
20190223123704 34 343 0.0 0.0 0.00 0.00 0.00 72 1033.6
20190223123204 34 343 0.0 0.0 0.00 0.00 0.00 72 1033.5
20190223121703 33 343 0.0 0.0 0.00 0.00 0.00 73 1033.3
20190223121204 33 343 0.0 0.0 0.00 0.00 0.00 72 1033.4
20190223120703 33 343 0.0 0.0 0.00 0.00 0.00 72 1033.3
20190223120203 34 343 0.0 1.0 0.00 0.00 0.00 72 1033.2
20190223114703 33 345 0.0 0.0 0.00 0.00 0.00 73 1032.6
20190223114204 33 345 0.0 0.0 0.00 0.00 0.00 73 1032.4
20190223113704 33 345 0.0 0.0 0.00 0.00 0.00 73 1032.8
20190223113203 33 345 0.0 0.0 0.00 0.00 0.00 73 1032.5
20190223111704 33 346 0.0 0.0 0.00 0.00 0.00 74 1032.1
20190223111204 33 346 0.0 0.0 0.00 0.00 0.00 74 1032.1
20190223110704 33 346 0.0 0.0 0.00 0.00 0.00 74 1032.5
20190223110204 33 346 0.0 0.0 0.00 0.00 0.00 73 1032.3
20190223104703 33 346 0.0 0.0 0.00 0.00 0.00 72 1031.9
20190223104204 33 346 0.0 0.0 0.00 0.00 0.00 72 1032.0
20190223103704 34 346 0.0 0.0 0.00 0.00 0.00 72 1032.0
20190223103203 34 346 0.0 0.0 0.00 0.00 0.00 72 1032.1
20190223101704 34 346 0.0 0.0 0.00 0.00 0.00 70 1032.4
20190223101204 34 346 0.0 0.0 0.00 0.00 0.00 70 1032.6
20190223100703 35 346 0.0 0.0 0.00 0.00 0.00 70 1032.2
20190223100203 35 346 0.0 1.0 0.00 0.00 0.00 70 1032.1
20190223094704 35 346 0.0 0.0 0.00 0.00 0.00 70 1032.1
20190223094204 35 346 0.0 0.0 0.00 0.00 0.00 70 1032.2
20190223093704 35 346 0.0 0.0 0.00 0.00 0.00 70 1032.3
20190223093204 35 351 0.0 2.0 0.00 0.00 0.00 70 1032.2
20190223091703 36 349 1.0 2.0 0.00 0.00 0.00 69 1031.9
20190223091204 36 348 0.0 1.0 0.00 0.00 0.00 69 1031.8
20190223090704 36 348 0.0 0.0 0.00 0.00 0.00 69 1031.7
20190223090204 36 348 0.0 2.0 0.00 0.00 0.00 69 1031.9
20190223084704 36 343 0.0 1.0 0.00 0.00 0.00 70 1031.8
20190223084204 36 340 0.0 0.0 0.00 0.00 0.00 70 1031.7
20190223083703 36 340 0.0 0.0 0.00 0.00 0.00 71 1032.2
20190223083204 35 340 0.0 0.0 0.00 0.00 0.00 71 1031.9
20190223081703 35 339 0.0 1.0 0.00 0.00 0.00 74 1031.9
20190223081204 35 339 0.0 0.0 0.00 0.00 0.00 76 1031.9
20190223080703 35 339 0.0 0.0 0.00 0.00 0.00 77 1032.2
20190223080204 35 339 0.0 0.0 0.00 0.00 0.00 77 1032.1
20190223074704 35 339 0.0 0.0 0.00 0.00 0.00 76 1032.3
20190223074205 35 339 0.0 0.0 0.00 0.00 0.00 75 1032.6
20190223073704 35 339 0.0 0.0 0.00 0.00 0.00 74 1032.6
20190223073204 35 339 0.0 2.0 0.00 0.00 0.00 74 1032.6
20190223071704 35 349 0.0 0.0 0.00 0.00 0.00 75 1032.6
20190223071203 35 349 0.0 1.0 0.00 0.00 0.00 74 1032.5
20190223070704 36 352 1.0 2.0 0.00 0.00 0.00 74 1032.4
20190223070204 36 351 1.0 2.0 0.00 0.00 0.00 74 1032.7
20190223064703 36 345 0.0 0.0 0.00 0.00 0.00 73 1033.2
20190223064203 36 345 0.0 0.0 0.00 0.00 0.00 73 1033.3
20190223063704 36 344 0.0 0.0 0.00 0.00 0.00 73 1033.5
20190223063203 36 344 0.0 0.0 0.00 0.00 0.00 73 1033.2
20190223061703 36 344 1.0 1.0 0.00 0.00 0.00 72 1033.6
20190223061204 36 347 1.0 2.0 0.00 0.00 0.00 72 1033.3
20190223060703 36 342 0.0 2.0 0.00 0.00 0.00 72 1033.1
20190223060204 37 343 1.0 2.0 0.00 0.00 0.00 72 1032.9
20190223054705 37 344 1.0 1.0 0.00 0.00 0.00 72 1032.8
20190223054204 36 341 0.0 1.0 0.00 0.00 0.00 73 1032.7
20190223053704 36 342 0.0 1.0 0.00 0.00 0.00 73 1032.5
20190223053203 36 342 0.0 0.0 0.00 0.00 0.00 74 1032.4
20190223051704 36 342 0.0 0.0 0.00 0.00 0.00 74 1032.4
20190223051204 36 342 0.0 0.0 0.00 0.00 0.00 74 1032.3
20190223050704 35 342 0.0 0.0 0.00 0.00 0.00 74 1032.4
20190223050203 36 342 0.0 0.0 0.00 0.00 0.00 74 1032.6
20190223044704 36 342 0.0 0.0 0.00 0.00 0.00 73 1032.6
20190223044203 36 342 0.0 0.0 0.00 0.00 0.00 73 1032.6
20190223043703 36 342 0.0 0.0 0.00 0.00 0.00 73 1032.5
20190223043203 36 342 0.0 0.0 0.00 0.00 0.00 73 1032.4
20190223041703 36 342 0.0 0.0 0.00 0.00 0.00 73 1032.5
20190223041203 36 342 0.0 0.0 0.00 0.00 0.00 73 1032.5
20190223040704 36 342 0.0 0.0 0.00 0.00 0.00 73 1032.4
20190223040203 36 342 0.0 0.0 0.00 0.00 0.00 72 1032.4
20190223034704 36 342 0.0 0.0 0.00 0.00 0.00 72 1032.4
20190223034203 36 342 0.0 0.0 0.00 0.00 0.00 71 1032.5
20190223033704 36 342 0.0 0.0 0.00 0.00 0.00 71 1032.5
20190223033204 36 342 0.0 0.0 0.00 0.00 0.00 71 1032.5
20190223031703 36 342 0.0 0.0 0.00 0.00 0.00 69 1032.4
20190223031203 36 342 0.0 0.0 0.00 0.00 0.00 69 1032.4
20190223030703 36 342 0.0 0.0 0.00 0.00 0.00 69 1032.5
20190223030204 36 342 0.0 0.0 0.00 0.00 0.00 69 1032.6
20190223024703 37 342 0.0 0.0 0.00 0.00 0.00 68 1032.5
20190223024204 37 342 0.0 0.0 0.00 0.00 0.00 68 1032.5
20190223023704 37 342 0.0 0.0 0.00 0.00 0.00 68 1032.5
20190223023204 37 342 0.0 0.0 0.00 0.00 0.00 68 1032.4
20190223021703 38 342 0.0 0.0 0.00 0.00 0.00 68 1032.1
20190223021204 38 342 0.0 0.0 0.00 0.00 0.00 68 1032.2
20190223020703 38 342 0.0 0.0 0.00 0.00 0.00 67 1032.3
20190223020203 38 342 0.0 0.0 0.00 0.00 0.00 67 1032.4
20190223014703 38 342 0.0 0.0 0.00 0.00 0.00 66 1032.4
20190223014203 38 342 0.0 0.0 0.00 0.00 0.00 66 1032.3
20190223013703 38 342 0.0 0.0 0.00 0.00 0.00 66 1032.4
20190223013204 38 342 0.0 0.0 0.00 0.00 0.00 66 1032.5
20190223011705 39 342 0.0 0.0 0.00 0.00 0.00 63 1032.5
20190223011203 39 342 0.0 0.0 0.00 0.00 0.00 63 1032.6
20190223010703 39 342 0.0 0.0 0.00 0.00 0.00 63 1032.6
20190223010204 39 342 0.0 0.0 0.00 0.00 0.00 64 1032.5
20190223004703 40 342 0.0 0.0 0.00 0.00 0.00 63 1032.5
20190223004204 40 342 0.0 0.0 0.00 0.00 0.00 63 1032.4
20190223003703 40 342 0.0 0.0 0.00 0.00 0.00 61 1032.3
20190223003204 40 342 0.0 0.0 0.00 0.00 0.00 61 1032.2
20190223001704 41 342 0.0 0.0 0.00 0.00 0.00 59 1031.7
20190223001204 41 342 0.0 0.0 0.00 0.00 0.00 58 1031.6
20190223000704 41 342 0.0 0.0 0.00 0.00 0.00 58 1031.6
20190223000204 41 342 0.0 0.0 0.00 0.00 0.00 58 1031.5
20190222234703 42 342 0.0 0.0 0.00 0.00 0.00 57 1031.6
20190222234204 42 342 0.0 0.0 0.00 0.00 0.00 56 1031.6
20190222233703 42 342 1.0 2.0 0.00 0.00 0.00 56 1031.6
20190222233204 42 341 0.0 1.0 0.00 0.00 0.00 56 1031.8
20190222231704 42 341 0.0 1.0 0.00 0.00 0.00 55 1031.8
20190222231204 42 342 0.0 1.0 0.00 0.00 0.00 56 1031.8
20190222230704 42 342 0.0 0.0 0.00 0.00 0.00 56 1031.6
20190222230204 42 342 0.0 0.0 0.00 0.00 0.00 55 1031.5
20190222224704 43 341 0.0 1.0 0.00 0.00 0.00 54 1031.5
20190222224204 43 342 0.0 1.0 0.00 0.00 0.00 52 1031.2
20190222223704 43 336 0.0 1.0 0.00 0.00 0.00 53 1031.3
20190222223205 43 338 0.0 2.0 0.00 0.00 0.00 52 1030.9
20190222221704 44 341 0.0 3.0 0.00 0.00 0.00 51 1030.5
20190222221203 44 348 3.0 3.0 0.00 0.00 0.00 50 1030.6
20190222220703 44 339 3.0 5.0 0.00 0.00 0.00 51 1030.5
20190222220203 44 344 1.0 3.0 0.00 0.00 0.00 52 1030.4
20190222214704 44 341 0.0 1.0 0.00 0.00 0.00 52 1030.3
20190222214204 44 339 2.0 2.0 0.00 0.00 0.00 51 1030.4
20190222213704 44 341 1.0 2.0 0.00 0.00 0.00 53 1030.5
20190222213203 44 341 1.0 3.0 0.00 0.00 0.00 52 1030.4
20190222211704 45 341 2.0 3.0 0.00 0.00 0.00 51 1030.4
20190222211204 45 345 3.0 5.0 0.00 0.00 0.00 51 1030.4
20190222210703 45 340 0.0 1.0 0.00 0.00 0.00 51 1030.4
20190222210204 45 345 1.0 5.0 0.00 0.00 0.00 52 1030.5
20190222204704 45 351 2.0 3.0 0.00 0.00 0.00 52 1030.6
20190222204203 45 341 0.0 1.0 0.00 0.00 0.00 52 1030.6
20190222203704 45 341 0.0 1.0 0.00 0.00 0.00 52 1030.6
20190222203204 45 350 0.0 5.0 0.00 0.00 0.00 52 1030.6
20190222201704 45 340 1.0 3.0 0.00 0.00 0.00 52 1030.7
20190222201204 45 348 2.0 5.0 0.00 0.00 0.00 51 1030.6
20190222200705 45 337 1.0 2.0 0.00 0.00 0.00 51 1030.5
20190222200204 45 335 1.0 2.0 0.00 0.00 0.00 52 1030.5
20190222194704 45 336 0.0 3.0 0.00 0.00 0.00 53 1030.3
20190222194204 45 346 3.0 5.0 0.00 0.00 0.00 51 1030.3
20190222193704 45 341 2.0 5.0 0.00 0.00 0.00 52 1030.3
20190222193204 45 346 2.0 6.0 0.00 0.00 0.00 52 1030.3
20190222191704 45 342 2.0 5.0 0.00 0.00 0.00 49 1030.1
20190222191204 45 348 2.0 5.0 0.00 0.00 0.00 51 1030.2
20190222190703 45 342 1.0 3.0 0.00 0.00 0.00 51 1030.3
20190222190204 45 342 1.0 7.0 0.00 0.00 0.00 51 1030.0
20190222184704 45 349 1.0 5.0 0.00 0.00 0.00 49 1029.9
20190222184203 45 350 1.0 2.0 0.00 0.00 0.00 49 1029.8
20190222183703 45 340 3.0 6.0 0.00 0.00 0.00 50 1030.0
20190222183203 45 1 3.0 9.0 0.00 0.00 0.00 49 1030.0
20190222181703 45 341 3.0 6.0 0.00 0.00 0.00 51 1030.1
20190222181203 45 344 3.0 5.0 0.00 0.00 0.00 51 1030.2
20190222180704 44 333 1.0 3.0 0.00 0.00 0.00 54 1030.3
20190222180203 44 346 1.0 5.0 0.00 0.00 0.00 52 1030.3
20190222174704 44 350 1.0 3.0 0.00 0.00 0.00 55 1030.3
20190222174204 44 346 5.0 7.0 0.00 0.00 0.00 53 1030.3
20190222173703 44 346 2.0 5.0 0.00 0.00 0.00 54 1030.4
20190222173203 44 342 2.0 6.0 0.00 0.01 0.00 54 1030.5
20190222171704 44 340 2.0 3.0 0.00 0.03 0.00 53 1030.7
20190222171204 44 345 3.0 6.0 0.00 0.05 0.00 53 1030.9
20190222170703 44 345 1.0 3.0 0.00 0.06 0.00 53 1030.8
20190222170203 44 351 2.0 6.0 0.00 0.08 0.00 52 1030.7
20190222164705 44 347 5.0 7.0 0.00 0.13 0.00 53 1031.0
20190222164204 44 339 3.0 5.0 0.00 0.15 0.00 54 1030.9
20190222163704 44 342 2.0 5.0 0.00 0.18 0.00 54 1030.9